• In Netherlands
  • List of Countries
  • For 7 days
  • Water Temperature
  • Satellite Maps
  • Weather Map
  • Weather Widgets
  • user-avatar
    Login

    Hourly Weather Eisenstadt

    Today, 26 April, Wednesday

    Time Temperature Precipitation Wind Pressure Humidity
    00:00 +8°C° 0 mm 4 mps 716 mmHg 83%
    01:00 +8°C° 0 mm 3 mps 715 mmHg 86%
    02:00 +8°C° 0 mm 3 mps 715 mmHg 86%
    03:00 +8°C° 0 mm 3 mps 715 mmHg 86%
    04:00 +7°C° 0 mm 4 mps 715 mmHg 85%
    05:00 +8°C° 0 mm 4 mps 715 mmHg 83%
    06:00 +9°C° 0 mm 5 mps 715 mmHg 81%
    07:00 +10°C° 0 mm 5 mps 715 mmHg 79%
    08:00 +11°C° 0 mm 6 mps 716 mmHg 75%
    09:00 +13°C° 0 mm 6 mps 716 mmHg 70%
    10:00 +15°C° 0 mm 7 mps 716 mmHg 65%
    11:00 +15°C° 0 mm 7 mps 716 mmHg 63%
    12:00 +16°C° 0 mm 8 mps 716 mmHg 61%
    13:00 +16°C° 0 mm 8 mps 716 mmHg 59%
    14:00 +16°C° 0.1 mm 8 mps 716 mmHg 61%
    15:00 +16°C° 0.1 mm 8 mps 716 mmHg 64%
    16:00 +15°C° 0.1 mm 7 mps 716 mmHg 66%
    17:00 +14°C° 0.1 mm 6 mps 716 mmHg 71%
    18:00 +12°C° 0.1 mm 4 mps 716 mmHg 76%
    19:00 +10°C° 0.1 mm 3 mps 716 mmHg 81%
    20:00 +10°C° 0.1 mm 3 mps 716 mmHg 83%
    21:00 +9°C° 0.1 mm 3 mps 717 mmHg 84%
    22:00 +8°C° 0.1 mm 3 mps 717 mmHg 86%
    23:00 +8°C° 0.6 mm 3 mps 717 mmHg 88%

    Tomorrow, 27 April, Thursday

    Time Temperature Precipitation Wind Pressure Humidity
    00:00 +7°C° 0.6 mm 3 mps 717 mmHg 89%
    01:00 +5°C° 0.6 mm 3 mps 717 mmHg 91%
    02:00 +5°C° 0.6 mm 3 mps 717 mmHg 92%
    03:00 +5°C° 0.6 mm 3 mps 716 mmHg 92%
    04:00 +4°C° 0.6 mm 3 mps 716 mmHg 93%
    05:00 +4°C° 0.6 mm 3 mps 716 mmHg 93%
    06:00 +4°C° 0.6 mm 3 mps 716 mmHg 93%
    07:00 +4°C° 0.6 mm 3 mps 717 mmHg 93%
    08:00 +5°C° 0.6 mm 3 mps 717 mmHg 92%
    09:00 +5°C° 0.6 mm 3 mps 717 mmHg 91%
    10:00 +7°C° 0.6 mm 2 mps 717 mmHg 90%
    11:00 +5°C° 0.6 mm 3 mps 717 mmHg 91%
    12:00 +5°C° 0.6 mm 3 mps 717 mmHg 92%
    13:00 +5°C° 0.6 mm 4 mps 716 mmHg 92%
    14:00 +5°C° 0.4 mm 3 mps 716 mmHg 92%
    15:00 +5°C° 0.4 mm 3 mps 716 mmHg 91%
    16:00 +7°C° 0.4 mm 3 mps 716 mmHg 90%
    17:00 +5°C° 0.4 mm 3 mps 715 mmHg 92%
    18:00 +6°C° 0.4 mm 2 mps 715 mmHg 93%
    19:00 +6°C° 0.4 mm 2 mps 715 mmHg 94%
    20:00 +6°C° 0.4 mm 2 mps 715 mmHg 95%
    21:00 +6°C° 0.4 mm 2 mps 715 mmHg 95%
    22:00 +6°C° 0.4 mm 2 mps 715 mmHg 96%
    23:00 +6°C° 0.4 mm 2 mps 715 mmHg 96%

    Day after tomorrow, 28 April, Friday

    Time Temperature Precipitation Wind Pressure Humidity
    00:00 +6°C° 0.4 mm 2 mps 714 mmHg 97%
    01:00 +6°C° 0.4 mm 2 mps 714 mmHg 97%
    02:00 +6°C° 0.8 mm 2 mps 714 mmHg 97%
    03:00 +6°C° 0.8 mm 2 mps 713 mmHg 97%
    04:00 +6°C° 0.8 mm 2 mps 713 mmHg 97%
    05:00 +6°C° 0.5 mm 2 mps 713 mmHg 96%
    06:00 +6°C° 0.5 mm 2 mps 713 mmHg 96%
    07:00 +7°C° 0.5 mm 2 mps 713 mmHg 95%
    08:00 +7°C° 0.2 mm 2 mps 713 mmHg 93%
    09:00 +8°C° 0.2 mm 2 mps 713 mmHg 92%
    10:00 +9°C° 0.2 mm 2 mps 713 mmHg 90%
    11:00 +9°C° 0.6 mm 2 mps 713 mmHg 89%
    12:00 +10°C° 0.6 mm 2 mps 713 mmHg 88%
    13:00 +10°C° 0.6 mm 2 mps 713 mmHg 88%
    14:00 +10°C° 0.1 mm 2 mps 713 mmHg 84%
    15:00 +12°C° 0.1 mm 2 mps 713 mmHg 81%
    16:00 +11°C° 0.1 mm 3 mps 713 mmHg 78%
    17:00 +10°C° 0.1 mm 3 mps 713 mmHg 81%
    18:00 +8°C° 0.1 mm 3 mps 714 mmHg 83%
    19:00 +7°C° 0.1 mm 3 mps 714 mmHg 86%
    20:00 +7°C° 0.2 mm 3 mps 715 mmHg 87%
    21:00 +5°C° 0.2 mm 3 mps 715 mmHg 88%
    22:00 +5°C° 0.2 mm 3 mps 716 mmHg 89%
    23:00 +4°C° 0.1 mm 3 mps 716 mmHg 89%

    29 April, Saturday

    Time Temperature Precipitation Wind Pressure Humidity
    00:00 +4°C° 0.1 mm 4 mps 717 mmHg 90%
    01:00 +4°C° 0.1 mm 4 mps 717 mmHg 90%
    02:00 +4°C° 0 mm 4 mps 718 mmHg 90%
    03:00 +4°C° 0 mm 4 mps 718 mmHg 90%
    04:00 +4°C° 0 mm 4 mps 719 mmHg 89%
    05:00 +4°C° 0 mm 4 mps 719 mmHg 86%
    06:00 +5°C° 0 mm 5 mps 720 mmHg 82%
    07:00 +6°C° 0 mm 5 mps 721 mmHg 79%
    08:00 +7°C° 0 mm 5 mps 721 mmHg 72%
    09:00 +8°C° 0 mm 5 mps 721 mmHg 64%
    10:00 +10°C° 0 mm 5 mps 722 mmHg 57%
    11:00 +10°C° 0 mm 5 mps 721 mmHg 56%
    12:00 +12°C° 0 mm 4 mps 721 mmHg 54%
    13:00 +13°C° 0 mm 4 mps 721 mmHg 53%
    14:00 +13°C° 0.1 mm 3 mps 721 mmHg 54%
    15:00 +13°C° 0.1 mm 3 mps 721 mmHg 55%
    16:00 +13°C° 0.1 mm 3 mps 721 mmHg 56%
    17:00 +10°C° 0.1 mm 2 mps 721 mmHg 66%
    18:00 +8°C° 0.1 mm 2 mps 721 mmHg 75%
    19:00 +7°C° 0.1 mm 1 mps 721 mmHg 85%
    20:00 +7°C° 0 mm 1 mps 722 mmHg 85%
    21:00 +7°C° 0 mm 1 mps 722 mmHg 86%
    22:00 +6°C° 0 mm 1 mps 722 mmHg 86%
    23:00 +6°C° 0 mm 1 mps 722 mmHg 87%

    30 April, Sunday

    Time Temperature Precipitation Wind Pressure Humidity
    00:00 +5°C° 0 mm 1 mps 722 mmHg 88%
    01:00 +4°C° 0 mm 1 mps 722 mmHg 89%
    02:00 +4°C° 0 mm 1 mps 722 mmHg 89%
    03:00 +4°C° 0 mm 1 mps 723 mmHg 90%
    04:00 +4°C° 0 mm 1 mps 723 mmHg 90%
    05:00 +5°C° 0 mm 1 mps 723 mmHg 86%
    06:00 +7°C° 0 mm 1 mps 723 mmHg 82%
    07:00 +9°C° 0 mm 1 mps 724 mmHg 78%
    08:00 +10°C° 0 mm 1 mps 724 mmHg 74%
    09:00 +10°C° 0 mm 2 mps 724 mmHg 69%
    10:00 +13°C° 0 mm 2 mps 724 mmHg 65%
    11:00 +13°C° 0 mm 3 mps 724 mmHg 62%
    12:00 +14°C° 0 mm 3 mps 724 mmHg 59%
    13:00 +15°C° 0 mm 4 mps 723 mmHg 56%
    14:00 +15°C° 0 mm 4 mps 723 mmHg 56%
    15:00 +15°C° 0 mm 4 mps 723 mmHg 56%
    16:00 +15°C° 0 mm 4 mps 723 mmHg 57%
    17:00 +13°C° 0 mm 3 mps 722 mmHg 65%
    18:00 +11°C° 0 mm 3 mps 722 mmHg 73%
    19:00 +9°C° 0 mm 3 mps 722 mmHg 81%
    20:00 +9°C° 0 mm 3 mps 722 mmHg 83%
    21:00 +8°C° 0 mm 2 mps 722 mmHg 84%
    22:00 +7°C° 0 mm 2 mps 723 mmHg 86%
    23:00 +6°C° 0 mm 2 mps 723 mmHg 86%

    1 May, Monday

    Time Temperature Precipitation Wind Pressure Humidity
    00:00 +6°C° 0 mm 2 mps 722 mmHg 87%
    01:00 +6°C° 0 mm 2 mps 722 mmHg 87%
    02:00 +6°C° 0 mm 2 mps 722 mmHg 87%
    03:00 +5°C° 0 mm 2 mps 722 mmHg 87%
    04:00 +5°C° 0 mm 2 mps 722 mmHg 88%
    05:00 +7°C° 0 mm 2 mps 722 mmHg 83%
    06:00 +8°C° 0 mm 3 mps 723 mmHg 78%
    07:00 +10°C° 0 mm 3 mps 723 mmHg 73%
    08:00 +11°C° 0 mm 4 mps 723 mmHg 69%
    09:00 +13°C° 0 mm 4 mps 723 mmHg 64%
    10:00 +14°C° 0 mm 5 mps 723 mmHg 59%
    11:00 +15°C° 0 mm 5 mps 722 mmHg 58%
    12:00 +16°C° 0 mm 5 mps 722 mmHg 56%
    13:00 +17°C° 0 mm 5 mps 722 mmHg 54%
    14:00 +17°C° 0 mm 5 mps 721 mmHg 56%
    15:00 +17°C° 0 mm 5 mps 721 mmHg 57%
    16:00 +16°C° 0 mm 5 mps 721 mmHg 59%
    17:00 +15°C° 0 mm 5 mps 721 mmHg 66%
    18:00 +13°C° 0 mm 4 mps 720 mmHg 74%
    19:00 +12°C° 0 mm 3 mps 720 mmHg 81%
    20:00 +11°C° 0 mm 3 mps 720 mmHg 84%
    21:00 +10°C° 0 mm 3 mps 721 mmHg 87%
    22:00 +10°C° 0 mm 3 mps 721 mmHg 90%
    23:00 +9°C° 0 mm 3 mps 721 mmHg 91%
    Show more